{"data":{"norad_id":65921,"epoch":"2026-09-20T22:28:07.470912Z","epoch_age_seconds":65200,"freshness":"FRESH","line1":"1 65921U 25225M   26263.93619758  .00021467  00000+0  64462-3 0  9990","line2":"2 65921  53.1606 335.7710 0001282  78.3839 281.7308 15.34402744 54342","mean_motion":15.34402744,"eccentricity":0.0001282,"inclination_deg":53.1606,"raan_deg":335.771,"arg_perigee_deg":78.3839,"mean_anomaly_deg":281.7308,"bstar":0.00064462,"rev_number":5434,"period_min":93.847590251703,"perigee_km":461.81808979976,"apogee_km":463.57207914622,"semimajor_km":6840.832084473,"source":"CELESTRAK","updated_at":"2026-09-21T09:00:35.764460Z"}}